owner,sensor,date,latitude,longitude,vertical_datum,direction_of_sea_water_velocity,sea_water_speed,upward_sea_water_velocity,qcFlag 
ADCP,ioos:station:wmo:42373:1,2008-12-03T15:44:00Z,27.3540,-94.6250,79.0,320.0,17.5,-9999.0,'11111222,11111222,99999999' 
ADCP,ioos:station:wmo:42373:1,2008-12-03T16:04:00Z,27.3540,-94.6250,79.0,322.0,16.8,-9999.0,'11111222,11111222,99999999' 
ADCP,ioos:station:wmo:42373:1,2008-12-03T16:24:00Z,27.3540,-94.6250,79.0,314.0,17.2,-9999.0,'11111222,11111222,99999999' 
ADCP,ioos:station:wmo:42373:1,2008-12-03T16:44:00Z,27.3540,-94.6250,79.0,309.0,18.8,-9999.0,'11111222,11111222,99999999' 
ADCP,ioos:station:wmo:42373:1,2008-12-03T17:04:00Z,27.3540,-94.6250,79.0,308.0,19.7,-9999.0,'11111222,11111222,99999999' 
ADCP,ioos:station:wmo:42373:1,2008-12-03T17:24:00Z,27.3540,-94.6250,79.0,309.0,17.6,-9999.0,'11111222,11111222,99999999' 
ADCP,ioos:station:wmo:42373:1,2008-12-03T17:44:00Z,27.3540,-94.6250,79.0,307.0,16.7,-9999.0,'11111222,11111222,99999999' 
ADCP,ioos:station:wmo:42373:1,2008-12-03T18:04:00Z,27.3540,-94.6250,79.0,312.0,16.4,-9999.0,'11111222,11111222,99999999' 
ADCP,ioos:station:wmo:42373:1,2008-12-03T18:24:00Z,27.3540,-94.6250,79.0,312.0,16.1,-9999.0,'11111222,11111222,99999999' 
ADCP,ioos:station:wmo:42373:1,2008-12-03T18:44:00Z,27.3540,-94.6250,79.0,316.0,14.9,-9999.0,'11111222,11111222,99999999' 
ADCP,ioos:station:wmo:42373:1,2008-12-03T19:04:00Z,27.3540,-94.6250,79.0,314.0,14.0,-9999.0,'11111222,11111222,99999999' 
ADCP,ioos:station:wmo:42373:1,2008-12-03T19:24:00Z,27.3540,-94.6250,79.0,326.0,12.7,-9999.0,'11111222,11111222,99999999' 
ADCP,ioos:station:wmo:42373:1,2008-12-03T19:44:00Z,27.3540,-94.6250,79.0,333.0,13.6,-9999.0,'11111222,11111222,99999999' 
ADCP,ioos:station:wmo:42373:1,2008-12-03T20:04:00Z,27.3540,-94.6250,79.0,337.0,13.1,-9999.0,'11111222,11111222,99999999' 
ADCP,ioos:station:wmo:42373:1,2008-12-03T20:24:00Z,27.3540,-94.6250,79.0,351.0,12.6,-9999.0,'11111222,11111222,99999999' 
ADCP,ioos:station:wmo:42373:1,2008-12-03T20:44:00Z,27.3540,-94.6250,79.0,360.0,14.3,-9999.0,'11111222,11144222,99999999' 
ADCP,ioos:station:wmo:42373:1,2008-12-03T21:04:00Z,27.3540,-94.6250,79.0,0.0,14.2,-9999.0,'11111222,11111222,99999999' 
ADCP,ioos:station:wmo:42373:1,2008-12-03T21:24:00Z,27.3540,-94.6250,79.0,353.0,14.6,-9999.0,'11111222,11111222,99999999' 
ADCP,ioos:station:wmo:42373:1,2008-12-03T21:44:00Z,27.3540,-94.6250,79.0,348.0,14.8,-9999.0,'11111222,11111222,99999999' 
ADCP,ioos:station:wmo:42373:1,2008-12-03T22:04:00Z,27.3540,-94.6250,79.0,351.0,14.1,-9999.0,'11111222,11111222,99999999' 
ADCP,ioos:station:wmo:42373:1,2008-12-03T22:24:00Z,27.3540,-94.6250,79.0,0.0,14.1,-9999.0,'11111222,11111222,99999999' 
ADCP,ioos:station:wmo:42373:1,2008-12-03T22:44:00Z,27.3540,-94.6250,79.0,351.0,14.8,-9999.0,'11111222,11111222,99999999' 
ADCP,ioos:station:wmo:42373:1,2008-12-03T23:04:00Z,27.3540,-94.6250,79.0,352.0,14.8,-9999.0,'11111222,11111222,99999999' 
ADCP,ioos:station:wmo:42373:1,2008-12-03T23:24:00Z,27.3540,-94.6250,79.0,353.0,15.6,-9999.0,'11111222,11111222,99999999' 
ADCP,ioos:station:wmo:42373:1,2008-12-03T23:44:00Z,27.3540,-94.6250,79.0,7.0,16.5,-9999.0,'11111222,11111222,99999999' 
ADCP,ioos:station:wmo:42373:1,2008-12-04T00:04:00Z,27.3540,-94.6250,79.0,15.0,18.3,-9999.0,'11111222,11111222,99999999' 
ADCP,ioos:station:wmo:42373:1,2008-12-04T00:24:00Z,27.3540,-94.6250,79.0,0.0,15.2,-9999.0,'11111222,11111222,99999999' 
ADCP,ioos:station:wmo:42373:1,2008-12-04T00:44:00Z,27.3540,-94.6250,79.0,356.0,15.5,-9999.0,'11111222,11111222,99999999' 
ADCP,ioos:station:wmo:42373:1,2008-12-04T01:04:00Z,27.3540,-94.6250,79.0,349.0,15.4,-9999.0,'11111222,11111222,99999999' 
ADCP,ioos:station:wmo:42373:1,2008-12-04T01:24:00Z,27.3540,-94.6250,79.0,322.0,17.3,-9999.0,'11111222,11111222,99999999' 
ADCP,ioos:station:wmo:42373:1,2008-12-04T01:44:00Z,27.3540,-94.6250,79.0,310.0,18.0,-9999.0,'11111222,11111222,99999999' 
ADCP,ioos:station:wmo:42373:1,2008-12-04T02:04:00Z,27.3540,-94.6250,79.0,303.0,19.4,-9999.0,'11111222,11111222,99999999' 
ADCP,ioos:station:wmo:42373:1,2008-12-04T02:24:00Z,27.3540,-94.6250,79.0,295.0,20.3,-9999.0,'11111222,11111222,99999999' 
ADCP,ioos:station:wmo:42373:1,2008-12-04T02:44:00Z,27.3540,-94.6250,79.0,304.0,20.3,-9999.0,'11111222,11111222,99999999' 
ADCP,ioos:station:wmo:42373:1,2008-12-04T03:04:00Z,27.3540,-94.6250,79.0,309.0,19.3,-9999.0,'11111222,11111222,99999999' 
ADCP,ioos:station:wmo:42373:1,2008-12-04T03:24:00Z,27.3540,-94.6250,79.0,311.0,21.0,-9999.0,'11111222,11111222,99999999' 
ADCP,ioos:station:wmo:42373:1,2008-12-04T03:44:00Z,27.3540,-94.6250,79.0,313.0,20.3,-9999.0,'11111222,11111222,99999999' 
ADCP,ioos:station:wmo:42373:1,2008-12-04T04:04:00Z,27.3540,-94.6250,79.0,301.0,20.7,-9999.0,'11111222,11111222,99999999' 
ADCP,ioos:station:wmo:42373:1,2008-12-04T04:24:00Z,27.3540,-94.6250,79.0,301.0,21.8,-9999.0,'11111222,11111222,99999999' 
ADCP,ioos:station:wmo:42373:1,2008-12-04T04:44:00Z,27.3540,-94.6250,79.0,306.0,21.3,-9999.0,'11111222,11111222,99999999' 
ADCP,ioos:station:wmo:42373:1,2008-12-04T05:04:00Z,27.3540,-94.6250,79.0,301.0,22.1,-9999.0,'11111222,11111222,99999999' 
ADCP,ioos:station:wmo:42373:1,2008-12-04T05:24:00Z,27.3540,-94.6250,79.0,307.0,22.3,-9999.0,'11111222,11111222,99999999' 
ADCP,ioos:station:wmo:42373:1,2008-12-04T05:44:00Z,27.3540,-94.6250,79.0,310.0,22.8,-9999.0,'11111222,11111222,99999999' 
ADCP,ioos:station:wmo:42373:1,2008-12-04T06:04:00Z,27.3540,-94.6250,79.0,0.0,21.1,-9999.0,'11111222,11111222,99999999' 
ADCP,ioos:station:wmo:42373:1,2008-12-04T06:24:00Z,27.3540,-94.6250,79.0,326.0,18.7,-9999.0,'11111222,11111222,99999999' 
ADCP,ioos:station:wmo:42373:1,2008-12-04T06:44:00Z,27.3540,-94.6250,79.0,325.0,18.3,-9999.0,'11111222,11111222,99999999' 
ADCP,ioos:station:wmo:42373:1,2008-12-04T07:04:00Z,27.3540,-94.6250,79.0,319.0,19.2,-9999.0,'11111222,11111222,99999999' 
ADCP,ioos:station:wmo:42373:1,2008-12-04T07:24:00Z,27.3540,-94.6250,79.0,317.0,20.8,-9999.0,'11111222,11111222,99999999' 
ADCP,ioos:station:wmo:42373:1,2008-12-04T07:44:00Z,27.3540,-94.6250,79.0,313.0,20.9,-9999.0,'11111222,11111222,99999999' 
ADCP,ioos:station:wmo:42373:1,2008-12-04T08:04:00Z,27.3540,-94.6250,79.0,310.0,18.8,-9999.0,'11111222,11111222,99999999' 
ADCP,ioos:station:wmo:42373:1,2008-12-04T08:24:00Z,27.3540,-94.6250,79.0,304.0,20.3,-9999.0,'11111222,11111222,99999999' 
ADCP,ioos:station:wmo:42373:1,2008-12-04T08:44:00Z,27.3540,-94.6250,79.0,309.0,20.1,-9999.0,'11111222,11111222,99999999' 
ADCP,ioos:station:wmo:42373:1,2008-12-04T09:04:00Z,27.3540,-94.6250,79.0,315.0,18.6,-9999.0,'11111222,11111222,99999999' 
ADCP,ioos:station:wmo:42373:1,2008-12-04T09:24:00Z,27.3540,-94.6250,79.0,326.0,18.6,-9999.0,'11111222,11111222,99999999' 
ADCP,ioos:station:wmo:42373:1,2008-12-04T09:44:00Z,27.3540,-94.6250,79.0,330.0,18.6,-9999.0,'11111222,11111222,99999999' 
ADCP,ioos:station:wmo:42373:1,2008-12-04T10:04:00Z,27.3540,-94.6250,79.0,322.0,18.5,-9999.0,'11111222,11111222,99999999' 
ADCP,ioos:station:wmo:42373:1,2008-12-04T10:24:00Z,27.3540,-94.6250,79.0,331.0,17.8,-9999.0,'11111222,11111222,99999999' 
ADCP,ioos:station:wmo:42373:1,2008-12-04T10:44:00Z,27.3540,-94.6250,79.0,327.0,17.4,-9999.0,'11111222,11111222,99999999' 
ADCP,ioos:station:wmo:42373:1,2008-12-04T11:04:00Z,27.3540,-94.6250,79.0,348.0,15.6,-9999.0,'11111222,11111222,99999999' 
ADCP,ioos:station:wmo:42373:1,2008-12-04T11:24:00Z,27.3540,-94.6250,79.0,328.0,17.0,-9999.0,'11111222,11111222,99999999' 
ADCP,ioos:station:wmo:42373:1,2008-12-04T11:44:00Z,27.3540,-94.6250,79.0,315.0,16.3,-9999.0,'11111222,11111222,99999999' 
ADCP,ioos:station:wmo:42373:1,2008-12-04T12:04:00Z,27.3540,-94.6250,79.0,318.0,16.5,-9999.0,'11111222,11111222,99999999' 
ADCP,ioos:station:wmo:42373:1,2008-12-04T12:24:00Z,27.3540,-94.6250,79.0,314.0,16.5,-9999.0,'11111222,11111222,99999999' 
ADCP,ioos:station:wmo:42373:1,2008-12-04T12:44:00Z,27.3540,-94.6250,79.0,318.0,15.4,-9999.0,'11111222,11111222,99999999' 
ADCP,ioos:station:wmo:42373:1,2008-12-04T13:04:00Z,27.3540,-94.6250,79.0,314.0,15.1,-9999.0,'11111222,11111222,99999999' 
ADCP,ioos:station:wmo:42373:1,2008-12-04T13:24:00Z,27.3540,-94.6250,79.0,326.0,12.8,-9999.0,'11111222,11111222,99999999' 
ADCP,ioos:station:wmo:42373:1,2008-12-04T13:44:00Z,27.3540,-94.6250,79.0,343.0,10.8,-9999.0,'11111222,11111222,99999999' 
ADCP,ioos:station:wmo:42373:1,2008-12-04T14:04:00Z,27.3540,-94.6250,79.0,348.0,9.9,-9999.0,'11133222,11111222,99999999' 
ADCP,ioos:station:wmo:42373:1,2008-12-04T14:24:00Z,27.3540,-94.6250,79.0,348.0,9.8,-9999.0,'11133222,11111222,99999999' 
ADCP,ioos:station:wmo:42373:1,2008-12-04T14:44:00Z,27.3540,-94.6250,79.0,4.0,10.2,-9999.0,'11111222,11111222,99999999' 
ADCP,ioos:station:wmo:42373:1,2008-12-04T15:04:00Z,27.3540,-94.6250,79.0,6.0,10.1,-9999.0,'11111222,11111222,99999999' 
ADCP,ioos:station:wmo:42373:1,2008-12-04T15:24:00Z,27.3540,-94.6250,79.0,346.0,11.1,-9999.0,'11111222,11111222,99999999' 
ADCP,ioos:station:wmo:42373:1,2008-12-04T15:44:00Z,27.3540,-94.6250,79.0,352.0,10.5,-9999.0,'11111222,11111222,99999999' 
ADCP,ioos:station:wmo:42373:1,2008-12-04T16:04:00Z,27.3540,-94.6250,79.0,2.0,11.2,-9999.0,'11111222,11111222,99999999' 
ADCP,ioos:station:wmo:42373:1,2008-12-04T16:24:00Z,27.3540,-94.6250,79.0,13.0,12.6,-9999.0,'11111222,11111222,99999999' 
ADCP,ioos:station:wmo:42373:1,2008-12-04T16:44:00Z,27.3540,-94.6250,79.0,21.0,12.7,-9999.0,'11111222,11111222,99999999' 
ADCP,ioos:station:wmo:42373:1,2008-12-04T17:04:00Z,27.3540,-94.6250,79.0,24.0,14.1,-9999.0,'11111222,11111222,99999999' 
ADCP,ioos:station:wmo:42373:1,2008-12-04T17:24:00Z,27.3540,-94.6250,79.0,21.0,14.3,-9999.0,'11111222,11111222,99999999' 
ADCP,ioos:station:wmo:42373:1,2008-12-04T17:44:00Z,27.3540,-94.6250,79.0,21.0,14.7,-9999.0,'11111222,11111222,99999999' 
ADCP,ioos:station:wmo:42373:1,2008-12-04T18:04:00Z,27.3540,-94.6250,79.0,22.0,15.7,-9999.0,'11111222,11111222,99999999' 
ADCP,ioos:station:wmo:42373:1,2008-12-04T18:24:00Z,27.3540,-94.6250,79.0,21.0,17.2,-9999.0,'11111222,11111222,99999999' 
ADCP,ioos:station:wmo:42373:1,2008-12-04T18:44:00Z,27.3540,-94.6250,79.0,34.0,19.4,-9999.0,'11111222,11111222,99999999' 
ADCP,ioos:station:wmo:42373:1,2008-12-04T19:04:00Z,27.3540,-94.6250,79.0,38.0,20.9,-9999.0,'11111222,11111222,99999999' 
ADCP,ioos:station:wmo:42373:1,2008-12-04T19:24:00Z,27.3540,-94.6250,79.0,39.0,20.8,-9999.0,'11111222,11111222,99999999' 
ADCP,ioos:station:wmo:42373:1,2008-12-04T19:44:00Z,27.3540,-94.6250,79.0,39.0,22.4,-9999.0,'11111222,11111222,99999999' 
ADCP,ioos:station:wmo:42373:1,2008-12-04T20:04:00Z,27.3540,-94.6250,79.0,45.0,25.7,-9999.0,'11111222,11111222,99999999' 
ADCP,ioos:station:wmo:42373:1,2008-12-04T20:24:00Z,27.3540,-94.6250,79.0,39.0,24.4,-9999.0,'11111222,11111222,99999999' 
ADCP,ioos:station:wmo:42373:1,2008-12-04T20:44:00Z,27.3540,-94.6250,79.0,42.0,25.3,-9999.0,'11111222,11111222,99999999' 
ADCP,ioos:station:wmo:42373:1,2008-12-04T21:04:00Z,27.3540,-94.6250,79.0,45.0,28.0,-9999.0,'11111222,11111222,99999999' 
ADCP,ioos:station:wmo:42373:1,2008-12-04T21:24:00Z,27.3540,-94.6250,79.0,46.0,29.8,-9999.0,'11111222,11111222,99999999' 
ADCP,ioos:station:wmo:42373:1,2008-12-04T21:44:00Z,27.3540,-94.6250,79.0,44.0,30.0,-9999.0,'11111222,11111222,99999999' 
ADCP,ioos:station:wmo:42373:1,2008-12-04T22:04:00Z,27.3540,-94.6250,79.0,44.0,30.3,-9999.0,'11111222,11111222,99999999' 
ADCP,ioos:station:wmo:42373:1,2008-12-04T22:24:00Z,27.3540,-94.6250,79.0,37.0,28.4,-9999.0,'11111222,11111222,99999999' 
ADCP,ioos:station:wmo:42373:1,2008-12-04T22:44:00Z,27.3540,-94.6250,79.0,41.0,28.6,-9999.0,'11111222,11111222,99999999' 
ADCP,ioos:station:wmo:42373:1,2008-12-04T23:04:00Z,27.3540,-94.6250,79.0,41.0,30.1,-9999.0,'11111222,11111222,99999999' 
ADCP,ioos:station:wmo:42373:1,2008-12-04T23:24:00Z,27.3540,-94.6250,79.0,34.0,29.0,-9999.0,'11111222,11111222,99999999' 
ADCP,ioos:station:wmo:42373:1,2008-12-04T23:44:00Z,27.3540,-94.6250,79.0,30.0,28.6,-9999.0,'11111222,11111222,99999999' 
ADCP,ioos:station:wmo:42373:1,2008-12-05T00:04:00Z,27.3540,-94.6250,79.0,35.0,30.0,-9999.0,'11111222,11111222,99999999' 
ADCP,ioos:station:wmo:42373:1,2008-12-05T00:24:00Z,27.3540,-94.6250,79.0,30.0,29.2,-9999.0,'11111222,11111222,99999999' 
ADCP,ioos:station:wmo:42373:1,2008-12-05T00:44:00Z,27.3540,-94.6250,79.0,11.0,26.5,-9999.0,'11111222,11111222,99999999' 
ADCP,ioos:station:wmo:42373:1,2008-12-05T01:04:00Z,27.3540,-94.6250,79.0,5.0,25.4,-9999.0,'11111222,11111222,99999999' 
ADCP,ioos:station:wmo:42373:1,2008-12-05T01:24:00Z,27.3540,-94.6250,79.0,7.0,25.2,-9999.0,'11111222,11111222,99999999' 
ADCP,ioos:station:wmo:42373:1,2008-12-05T01:44:00Z,27.3540,-94.6250,79.0,0.0,23.7,-9999.0,'11111222,11111222,99999999' 
ADCP,ioos:station:wmo:42373:1,2008-12-05T02:04:00Z,27.3540,-94.6250,79.0,352.0,24.7,-9999.0,'11111222,11111222,99999999' 
ADCP,ioos:station:wmo:42373:1,2008-12-05T02:24:00Z,27.3540,-94.6250,79.0,354.0,23.9,-9999.0,'11111222,11111222,99999999' 
ADCP,ioos:station:wmo:42373:1,2008-12-05T02:44:00Z,27.3540,-94.6250,79.0,348.0,23.8,-9999.0,'11111222,11111222,99999999' 
ADCP,ioos:station:wmo:42373:1,2008-12-05T03:04:00Z,27.3540,-94.6250,79.0,344.0,23.1,-9999.0,'11111222,11111222,99999999' 
ADCP,ioos:station:wmo:42373:1,2008-12-05T03:24:00Z,27.3540,-94.6250,79.0,338.0,22.1,-9999.0,'11111222,11111222,99999999' 
ADCP,ioos:station:wmo:42373:1,2008-12-05T03:44:00Z,27.3540,-94.6250,79.0,343.0,21.0,-9999.0,'11111222,11111222,99999999' 
ADCP,ioos:station:wmo:42373:1,2008-12-05T04:04:00Z,27.3540,-94.6250,79.0,346.0,20.4,-9999.0,'11111222,11111222,99999999' 
ADCP,ioos:station:wmo:42373:1,2008-12-05T04:24:00Z,27.3540,-94.6250,79.0,346.0,22.1,-9999.0,'11111222,11111222,99999999' 
ADCP,ioos:station:wmo:42373:1,2008-12-05T04:44:00Z,27.3540,-94.6250,79.0,347.0,22.7,-9999.0,'11111222,11111222,99999999' 
ADCP,ioos:station:wmo:42373:1,2008-12-05T05:04:00Z,27.3540,-94.6250,79.0,339.0,22.8,-9999.0,'11111222,11111222,99999999' 
ADCP,ioos:station:wmo:42373:1,2008-12-05T05:24:00Z,27.3540,-94.6250,79.0,338.0,22.9,-9999.0,'11111222,11111222,99999999' 
ADCP,ioos:station:wmo:42373:1,2008-12-05T05:44:00Z,27.3540,-94.6250,79.0,332.0,21.7,-9999.0,'11111222,11111222,99999999' 
ADCP,ioos:station:wmo:42373:1,2008-12-05T06:04:00Z,27.3540,-94.6250,79.0,323.0,21.0,-9999.0,'11111222,11111222,99999999' 
ADCP,ioos:station:wmo:42373:1,2008-12-05T06:24:00Z,27.3540,-94.6250,79.0,326.0,21.8,-9999.0,'11111222,11111222,99999999' 
ADCP,ioos:station:wmo:42373:1,2008-12-05T06:44:00Z,27.3540,-94.6250,79.0,325.0,19.3,-9999.0,'11111222,11111222,99999999' 
ADCP,ioos:station:wmo:42373:1,2008-12-05T07:04:00Z,27.3540,-94.6250,79.0,330.0,18.4,-9999.0,'11111222,11111222,99999999' 
ADCP,ioos:station:wmo:42373:1,2008-12-05T07:24:00Z,27.3540,-94.6250,79.0,321.0,18.9,-9999.0,'11111222,11111222,99999999' 
ADCP,ioos:station:wmo:42373:1,2008-12-05T07:44:00Z,27.3540,-94.6250,79.0,308.0,19.9,-9999.0,'11111222,11111222,99999999' 
ADCP,ioos:station:wmo:42373:1,2008-12-05T08:04:00Z,27.3540,-94.6250,79.0,308.0,19.7,-9999.0,'11111222,11111222,99999999' 
ADCP,ioos:station:wmo:42373:1,2008-12-05T08:24:00Z,27.3540,-94.6250,79.0,323.0,17.3,-9999.0,'11111222,11111222,99999999' 
ADCP,ioos:station:wmo:42373:1,2008-12-05T08:44:00Z,27.3540,-94.6250,79.0,321.0,17.7,-9999.0,'11111222,11111222,99999999' 
ADCP,ioos:station:wmo:42373:1,2008-12-05T09:04:00Z,27.3540,-94.6250,79.0,312.0,17.9,-9999.0,'11111222,11111222,99999999' 
ADCP,ioos:station:wmo:42373:1,2008-12-05T09:24:00Z,27.3540,-94.6250,79.0,310.0,17.6,-9999.0,'11111222,11111222,99999999' 
ADCP,ioos:station:wmo:42373:1,2008-12-05T09:44:00Z,27.3540,-94.6250,79.0,313.0,16.0,-9999.0,'11111222,11111222,99999999' 
ADCP,ioos:station:wmo:42373:1,2008-12-05T10:04:00Z,27.3540,-94.6250,79.0,303.0,16.3,-9999.0,'11111222,11111222,99999999' 
ADCP,ioos:station:wmo:42373:1,2008-12-05T10:24:00Z,27.3540,-94.6250,79.0,301.0,17.2,-9999.0,'11111222,11111222,99999999' 
ADCP,ioos:station:wmo:42373:1,2008-12-05T10:44:00Z,27.3540,-94.6250,79.0,313.0,13.4,-9999.0,'11111222,11111222,99999999' 
ADCP,ioos:station:wmo:42373:1,2008-12-05T11:04:00Z,27.3540,-94.6250,79.0,309.0,12.6,-9999.0,'11111222,11111222,99999999' 
ADCP,ioos:station:wmo:42373:1,2008-12-05T11:24:00Z,27.3540,-94.6250,79.0,301.0,12.1,-9999.0,'11111222,11111222,99999999' 
ADCP,ioos:station:wmo:42373:1,2008-12-05T11:44:00Z,27.3540,-94.6250,79.0,306.0,11.2,-9999.0,'11111222,11111222,99999999' 
ADCP,ioos:station:wmo:42373:1,2008-12-05T12:04:00Z,27.3540,-94.6250,79.0,303.0,10.4,-9999.0,'11111222,11111222,99999999' 
ADCP,ioos:station:wmo:42373:1,2008-12-05T12:24:00Z,27.3540,-94.6250,79.0,298.0,9.5,-9999.0,'11133222,11111222,99999999' 
ADCP,ioos:station:wmo:42373:1,2008-12-05T12:44:00Z,27.3540,-94.6250,79.0,308.0,8.0,-9999.0,'11133222,11111222,99999999' 
ADCP,ioos:station:wmo:42373:1,2008-12-05T13:04:00Z,27.3540,-94.6250,79.0,306.0,7.4,-9999.0,'11133222,11111222,99999999' 
ADCP,ioos:station:wmo:42373:1,2008-12-05T13:24:00Z,27.3540,-94.6250,79.0,306.0,6.9,-9999.0,'11133222,11111222,99999999' 
ADCP,ioos:station:wmo:42373:1,2008-12-05T13:44:00Z,27.3540,-94.6250,79.0,328.0,5.9,-9999.0,'11133222,11111222,99999999' 
ADCP,ioos:station:wmo:42373:1,2008-12-05T14:04:00Z,27.3540,-94.6250,79.0,342.0,5.1,-9999.0,'11133222,11111222,99999999' 
ADCP,ioos:station:wmo:42373:1,2008-12-05T14:24:00Z,27.3540,-94.6250,79.0,1.0,4.7,-9999.0,'11133222,11111222,99999999' 
ADCP,ioos:station:wmo:42373:1,2008-12-05T14:44:00Z,27.3540,-94.6250,79.0,341.0,3.6,-9999.0,'11133222,11111222,99999999' 
ADCP,ioos:station:wmo:42373:1,2008-12-05T15:04:00Z,27.3540,-94.6250,79.0,315.0,4.9,-9999.0,'11133222,11111222,99999999' 
ADCP,ioos:station:wmo:42373:1,2008-12-05T15:24:00Z,27.3540,-94.6250,79.0,329.0,5.7,-9999.0,'11133222,11111222,99999999' 
ADCP,ioos:station:wmo:42373:1,2008-12-05T15:44:00Z,27.3540,-94.6250,79.0,316.0,5.2,-9999.0,'11133222,11111222,99999999' 
ADCP,ioos:station:wmo:42373:1,2008-12-05T16:04:00Z,27.3540,-94.6250,79.0,346.0,4.2,-9999.0,'11133222,11111222,99999999' 
ADCP,ioos:station:wmo:42373:1,2008-12-05T16:24:00Z,27.3540,-94.6250,79.0,309.0,5.3,-9999.0,'11133222,11111222,99999999' 
ADCP,ioos:station:wmo:42373:1,2008-12-05T16:44:00Z,27.3540,-94.6250,79.0,357.0,6.5,-9999.0,'11133222,11111222,99999999' 
ADCP,ioos:station:wmo:42373:1,2008-12-05T17:04:00Z,27.3540,-94.6250,79.0,20.0,8.3,-9999.0,'11133222,11111222,99999999' 
ADCP,ioos:station:wmo:42373:1,2008-12-05T17:24:00Z,27.3540,-94.6250,79.0,7.0,10.0,-9999.0,'11111222,11111222,99999999' 
ADCP,ioos:station:wmo:42373:1,2008-12-05T17:44:00Z,27.3540,-94.6250,79.0,13.0,9.8,-9999.0,'11133222,11111222,99999999' 
ADCP,ioos:station:wmo:42373:1,2008-12-05T18:04:00Z,27.3540,-94.6250,79.0,15.0,10.4,-9999.0,'11111222,11111222,99999999' 
ADCP,ioos:station:wmo:42373:1,2008-12-05T18:24:00Z,27.3540,-94.6250,79.0,2.0,9.7,-9999.0,'11133222,11111222,99999999' 
ADCP,ioos:station:wmo:42373:1,2008-12-05T18:44:00Z,27.3540,-94.6250,79.0,356.0,10.3,-9999.0,'11111222,11111222,99999999' 
ADCP,ioos:station:wmo:42373:1,2008-12-05T19:04:00Z,27.3540,-94.6250,79.0,4.0,10.2,-9999.0,'11111222,11111222,99999999' 
ADCP,ioos:station:wmo:42373:1,2008-12-05T19:24:00Z,27.3540,-94.6250,79.0,1.0,10.8,-9999.0,'11111222,11111222,99999999' 
ADCP,ioos:station:wmo:42373:1,2008-12-05T19:44:00Z,27.3540,-94.6250,79.0,4.0,12.4,-9999.0,'11111222,11111222,99999999' 
ADCP,ioos:station:wmo:42373:1,2008-12-05T20:04:00Z,27.3540,-94.6250,79.0,354.0,12.8,-9999.0,'11111222,11111222,99999999' 
ADCP,ioos:station:wmo:42373:1,2008-12-05T20:24:00Z,27.3540,-94.6250,79.0,0.0,13.3,-9999.0,'11111222,11111222,99999999' 
ADCP,ioos:station:wmo:42373:1,2008-12-05T20:44:00Z,27.3540,-94.6250,79.0,17.0,14.0,-9999.0,'11111222,11111222,99999999' 
ADCP,ioos:station:wmo:42373:1,2008-12-05T21:04:00Z,27.3540,-94.6250,79.0,8.0,15.2,-9999.0,'11111222,11111222,99999999' 
ADCP,ioos:station:wmo:42373:1,2008-12-05T21:24:00Z,27.3540,-94.6250,79.0,14.0,16.6,-9999.0,'11111222,11111222,99999999' 
ADCP,ioos:station:wmo:42373:1,2008-12-05T21:44:00Z,27.3540,-94.6250,79.0,20.0,16.7,-9999.0,'11111222,11111222,99999999' 
ADCP,ioos:station:wmo:42373:1,2008-12-05T22:04:00Z,27.3540,-94.6250,79.0,33.0,19.5,-9999.0,'11111222,11111222,99999999' 
ADCP,ioos:station:wmo:42373:1,2008-12-05T22:24:00Z,27.3540,-94.6250,79.0,34.0,21.9,-9999.0,'11111222,11111222,99999999' 
ADCP,ioos:station:wmo:42373:1,2008-12-05T22:44:00Z,27.3540,-94.6250,79.0,36.0,22.4,-9999.0,'11111222,11111222,99999999' 
ADCP,ioos:station:wmo:42373:1,2008-12-05T23:04:00Z,27.3540,-94.6250,79.0,38.0,22.9,-9999.0,'11111222,11111222,99999999' 
ADCP,ioos:station:wmo:42373:1,2008-12-05T23:24:00Z,27.3540,-94.6250,79.0,38.0,23.0,-9999.0,'11111222,11111222,99999999' 
ADCP,ioos:station:wmo:42373:1,2008-12-05T23:44:00Z,27.3540,-94.6250,79.0,40.0,23.3,-9999.0,'11111222,11111222,99999999' 
ADCP,ioos:station:wmo:42373:1,2008-12-06T00:04:00Z,27.3540,-94.6250,79.0,42.0,24.6,-9999.0,'11111222,11111222,99999999' 
ADCP,ioos:station:wmo:42373:1,2008-12-06T00:24:00Z,27.3540,-94.6250,79.0,44.0,25.1,-9999.0,'11111222,11111222,99999999' 
ADCP,ioos:station:wmo:42373:1,2008-12-06T00:44:00Z,27.3540,-94.6250,79.0,47.0,26.5,-9999.0,'11111222,11111222,99999999' 
ADCP,ioos:station:wmo:42373:1,2008-12-06T01:04:00Z,27.3540,-94.6250,79.0,47.0,27.5,-9999.0,'11111222,11111222,99999999' 
ADCP,ioos:station:wmo:42373:1,2008-12-06T01:24:00Z,27.3540,-94.6250,79.0,47.0,26.6,-9999.0,'11111222,11111222,99999999' 
ADCP,ioos:station:wmo:42373:1,2008-12-06T01:44:00Z,27.3540,-94.6250,79.0,47.0,26.1,-9999.0,'11111222,11111222,99999999' 
ADCP,ioos:station:wmo:42373:1,2008-12-06T02:04:00Z,27.3540,-94.6250,79.0,47.0,24.9,-9999.0,'11111222,11111222,99999999' 
ADCP,ioos:station:wmo:42373:1,2008-12-06T02:24:00Z,27.3540,-94.6250,79.0,45.0,23.1,-9999.0,'11111222,11111222,99999999' 
ADCP,ioos:station:wmo:42373:1,2008-12-06T02:44:00Z,27.3540,-94.6250,79.0,41.0,24.0,-9999.0,'11111222,11111222,99999999' 
ADCP,ioos:station:wmo:42373:1,2008-12-06T03:04:00Z,27.3540,-94.6250,79.0,43.0,23.1,-9999.0,'11111222,11111222,99999999' 
ADCP,ioos:station:wmo:42373:1,2008-12-06T03:24:00Z,27.3540,-94.6250,79.0,44.0,22.0,-9999.0,'11111222,11111222,99999999' 
ADCP,ioos:station:wmo:42373:1,2008-12-06T03:44:00Z,27.3540,-94.6250,79.0,38.0,23.6,-9999.0,'11111222,11111222,99999999' 
ADCP,ioos:station:wmo:42373:1,2008-12-06T04:04:00Z,27.3540,-94.6250,79.0,37.0,22.8,-9999.0,'11111222,11111222,99999999' 
ADCP,ioos:station:wmo:42373:1,2008-12-06T04:24:00Z,27.3540,-94.6250,79.0,49.0,22.3,-9999.0,'11111222,11111222,99999999' 
ADCP,ioos:station:wmo:42373:1,2008-12-06T04:44:00Z,27.3540,-94.6250,79.0,51.0,20.7,-9999.0,'11111222,11111222,99999999' 
ADCP,ioos:station:wmo:42373:1,2008-12-06T05:04:00Z,27.3540,-94.6250,79.0,37.0,16.8,-9999.0,'11111222,11111222,99999999' 
ADCP,ioos:station:wmo:42373:1,2008-12-06T05:24:00Z,27.3540,-94.6250,79.0,353.0,11.5,-9999.0,'11111222,11111222,99999999' 
ADCP,ioos:station:wmo:42373:1,2008-12-06T05:44:00Z,27.3540,-94.6250,79.0,300.0,16.3,-9999.0,'11111222,11111222,99999999' 
ADCP,ioos:station:wmo:42373:1,2008-12-06T06:04:00Z,27.3540,-94.6250,79.0,298.0,16.2,-9999.0,'11111222,11111222,99999999' 
ADCP,ioos:station:wmo:42373:1,2008-12-06T06:24:00Z,27.3540,-94.6250,79.0,293.0,17.7,-9999.0,'11111222,11111222,99999999' 
ADCP,ioos:station:wmo:42373:1,2008-12-06T06:44:00Z,27.3540,-94.6250,79.0,290.0,19.7,-9999.0,'11111222,11111222,99999999' 
ADCP,ioos:station:wmo:42373:1,2008-12-06T07:04:00Z,27.3540,-94.6250,79.0,297.0,16.8,-9999.0,'11111222,11111222,99999999' 
ADCP,ioos:station:wmo:42373:1,2008-12-06T07:24:00Z,27.3540,-94.6250,79.0,291.0,16.8,-9999.0,'11111222,11111222,99999999' 
ADCP,ioos:station:wmo:42373:1,2008-12-06T07:44:00Z,27.3540,-94.6250,79.0,328.0,18.8,-9999.0,'11111222,11111222,99999999' 
ADCP,ioos:station:wmo:42373:1,2008-12-06T08:04:00Z,27.3540,-94.6250,79.0,318.0,18.7,-9999.0,'11111222,11111222,99999999' 
ADCP,ioos:station:wmo:42373:1,2008-12-06T08:24:00Z,27.3540,-94.6250,79.0,322.0,17.7,-9999.0,'11111222,11111222,99999999' 
ADCP,ioos:station:wmo:42373:1,2008-12-06T08:44:00Z,27.3540,-94.6250,79.0,323.0,18.0,-9999.0,'11111222,11111222,99999999' 